GW0481 Weather Reports


time (UTC)temp
F
wind
direction
speed
knots
gust
knots
rain 1hr
in
rain 24hr
in
rain mn
in
humidity
%
barometer
mb
20260504081549 46 0 0.0 0.9 0.00 0.00 0.00 74 1014.5
20260504044546 49 239 0.0 3.5 0.00 0.00 0.00 59 1014.3
20260504043053 48 0 0.0 2.6 0.00 0.00 0.00 58 1014.1
20260504041546 48 0 0.0 4.3 0.00 0.00 0.00 58 1014.0
20260504040049 48 244 0.0 3.5 0.00 0.00 0.00 60 1014.0
20260504034553 48 0 0.9 2.6 0.00 0.00 0.00 60 1013.8
20260504033046 48 269 0.0 3.5 0.00 0.00 0.00 62 1013.8
20260504031546 48 250 0.0 2.6 0.00 0.00 0.00 64 1013.7
20260504030045 48 260 0.0 1.7 0.00 0.00 0.00 63 1013.8
20260504024551 48 0 0.0 2.6 0.00 0.00 0.00 63 1013.8
20260504023045 48 0 0.0 1.7 0.00 0.00 0.00 62 1013.8
20260504021551 48 0 0.9 2.6 0.00 0.00 0.00 63 1013.7
20260504020044 48 273 0.0 2.6 0.00 0.00 0.00 63 1013.7
20260504014548 48 0 0.0 3.5 0.00 0.00 0.00 62 1013.6
20260504013108 49 0 0.0 1.7 0.00 0.00 0.00 61 1013.5
20260504011545 50 243 0.0 0.9 0.00 0.00 0.00 59 1013.4
20260504010046 51 0 0.0 0.9 0.00 0.00 0.00 57 1013.2
20260504004550 52 0 0.0 0.0 0.00 0.00 0.00 53 1013.0
20260504003045 54 0 0.0 0.0 0.00 0.00 0.00 50 1012.7
20260504001549 56 0 0.0 0.0 0.00 0.00 0.00 44 1012.5
20260504000042 57 0 0.0 2.6 0.00 0.00 0.00 41 1012.5
20260503234549 58 227 0.0 5.2 0.00 0.00 0.00 40 1012.4
20260503233046 58 321 1.7 5.2 0.00 0.00 0.00 38 1012.2
20260503231549 59 238 1.7 8.7 0.00 0.00 0.00 37 1012.2
20260503230045 59 294 1.7 11.3 0.00 0.00 0.00 37 1012.2
20260503224541 59 222 1.7 9.6 0.00 0.00 0.00 35 1012.2
20260503223046 60 178 1.7 11.3 0.00 0.00 0.00 36 1012.1
20260503221559 60 246 4.3 13.0 0.00 0.00 0.00 35 1012.2
20260503220055 60 338 3.5 12.2 0.00 0.00 0.00 34 1012.2
20260503214547 61 257 0.9 13.9 0.00 0.00 0.00 34 1012.1
20260503213050 61 281 2.6 11.3 0.00 0.00 0.00 35 1012.0
20260503211552 61 270 5.2 13.0 0.00 0.00 0.00 34 1011.9
20260503210050 61 288 3.5 11.3 0.00 0.00 0.00 35 1012.1
20260503204609 61 338 3.5 13.9 0.00 0.00 0.00 34 1012.2
20260503203049 62 282 6.1 14.8 0.00 0.00 0.00 33 1012.4
20260503201549 62 301 6.1 17.4 0.00 0.00 0.00 35 1012.4
20260503200050 61 240 6.1 13.0 0.00 0.00 0.00 35 1012.6
20260503194547 62 245 3.5 13.9 0.00 0.00 0.00 35 1012.5
20260503193048 61 265 4.3 12.2 0.00 0.00 0.00 35 1012.7
20260503191606 61 234 5.2 13.9 0.00 0.00 0.00 36 1012.9
20260503190042 61 246 3.5 13.9 0.00 0.00 0.00 34 1012.8
20260503184550 62 45 3.5 12.2 0.00 0.00 0.00 32 1012.9
20260503183046 63 242 2.6 9.6 0.00 0.00 0.00 34 1013.2
20260503181552 62 340 4.3 11.3 0.00 0.00 0.00 33 1013.2
20260503180055 62 253 2.6 13.0 0.00 0.00 0.00 39 1013.2
20260503174552 60 352 4.3 15.6 0.00 0.00 0.00 39 1013.4
20260503173044 60 342 2.6 13.0 0.00 0.00 0.00 41 1013.5
20260503171550 60 9 4.3 10.4 0.00 0.00 0.00 39 1013.6